METEOR 2-5 DEB, 45513

Orbit data source: Space-Track

METEOR 2-5 DEB, 45513 is space debris in LEO originally from a launch on Wed, 31 Oct 1979 UTC launched from the Plesetsk Missile And Space Complex (PKMTR). Debris objects in space refer to the collection of defunct objects orbiting the Earth. Examples of debris include non-operational satellites, rocket bodies, and fragments generated from explosions, collisions, or faulty payload assembly.

Loading next visibility...
Identifier
45513, 1979-095CV
Orbit
LEO
Country
Flag of CISCIS
Related business
Manufacturer
Unknown
Mission
Spacecraft
Bus & Motor
Unknown
Mass
Unknown
Launch date (UTC)
1979-10-31 (47 years ago)
Launch vehicle
Unknown
Launch site
Plesetsk Missile And Space Complex (PKMTR)
Object type
Payload
Rocket body
Debris
Shape & HBR
Unknown shape, 0.1 m
Radar Cross Section
Small (<0.1 m²)

Expand to show TLE details & history
Last TLE update: 1 week ago

TLE from 1 week ago
0 METEOR 2-5 DEB
1 45513U 79095CV  26165.26182876  .00005341  00000-0  17120-2 0  9994
2 45513  81.1965 154.1342 0012611  68.4844 291.7686 14.39375297664134
Epoch: 2026-06-14T06:17Z
TLE epoch observation values (Epoch: 2026-06-14T06:17:02.004Z)
Latitude
-0.00004°
Longitude
157.31075°
Altitude
760.172 km
Speed
7.476 km/s
True Right ascension
10h 16m 32s
True Declination
0° 00' 00"
Sunlit
Object was in daylight at epoch
Visualization orbit readout
Latitude
Unknown
Longitude
Unknown
Altitude
Unknown
Speed
Unknown
Apparent Right ascension
Unknown
Apparent Declination
Unknown
Sunlit
N/A
Visualization observer readout
Local Sidereal Time
21:40:37
Azimuth
Unknown
Elevation
Unknown
Doppler factor
Unknown
Orbital elements
Apogee altitude
766.7 km
Perigee altitude
748.702 km
Semi-major axis
7,135.838 km
Eccentricity
0.00126
Inclination
81.1965°
RAAN
154.1342°
Arg. of periapsis
68.4844°
True anomaly
291.63432°
Mean anomaly
291.7686°
Eccentric anomaly
291.70147°
Mean motion
3.60061 °/min
Orbital period
99.98 mins
BSTAR
0.001712
Loading maneuver chart data...
Computing Atmospheric mass density...

Documentation

Showing up to 5 results
|